Weather History for Columbia / Mount Pleasant, TN

Change the Weather History Date:

Saturday, January 11, 2014

  Actual Average (KBNA) Record (KBNA)
Temperature  
Mean Temperature 46 °F 37 °F  
Max Temperature 57 °F 46 °F 72 °F (1890)
Min Temperature 35 °F 28 °F -9 °F (1886)
Degree Days  
Heating Degree Days 19 28  
Month to date heating degree days 303  
Since 1 July heating degree days 1740  
Cooling Degree Days 0 0  
Month to date cooling degree days 0  
Year to date cooling degree days 0  
Moisture  
Dew Point 47 °F    
Average Humidity 87    
Maximum Humidity 100    
Minimum Humidity 67    
Precipitation  
Precipitation 0.00 in 0.12 in 2.44 in (1898)
Month to date precipitation 1.28  
Year to date precipitation 1.28  
Snow  
Snow 0.00 in 0.00 in 6.50 in (1918)
Month to date snowfall 0.7  
Since 1 July snowfall 1.2  
Snow Depth -    
Sea Level Pressure  
Sea Level Pressure 29.78 in    
Wind  
Wind Speed 8 mph (WSW)    
Max Wind Speed 16 mph    
Max Gust Speed -    
Visibility 9 miles    
Events      
T = Trace of Precipitation, MM = Missing Value Source: NWS Daily Summary

Daily Weather History Graph

Daily Weather History Graph

Search for Another Location

Airport:

Trip Planner

Search our weather history database for the weather conditions in past years. The results will help you decide how hot, cold, wet, or windy it might be!

Date:

Astronomy

Jan. 11, 2014 Rise Set
Actual Time 6:58 AM CST 4:55 PM CST
Civil Twilight 6:30 AM CST 5:23 PM CST
Nautical Twilight 5:58 AM CST 5:54 PM CST
Astronomical Twilight 5:28 AM CST 6:25 PM CST
Moon 1:37 PM CST (1/11) 3:04 AM CST (1/11)
Length of Visible Light 10h 52m
Length of Day
9h 56m
Waxing Gibbous, 83% of the Moon is Illuminated
Jan 11
Waxing Gibbous
Jan 15
Full
Jan 23
Last Quarter
Jan 30
New
Feb 6
First Quarter

Hourly Weather History & Observations

Time (CST) Temp. Windchill Dew Point Humidity Pressure Visibility Wind Dir Wind Speed Gust Speed Precip Events Conditions
12:35 AM 57.2 °F - 57.2 °F 100% 29.67 in 6.0 mi South 13.8 mph - N/A   Overcast
12:55 AM 57.2 °F - 57.2 °F 100% 29.67 in 6.0 mi SSW 16.1 mph - N/A   Overcast
1:15 AM 57.2 °F - 57.2 °F 100% 29.69 in - WSW 11.5 mph - N/A   Overcast
1:35 AM 57.2 °F - 57.2 °F 100% 29.68 in 6.0 mi West 3.5 mph - N/A   Overcast
1:55 AM 57.2 °F - 57.2 °F 100% 29.67 in 7.0 mi SSW 4.6 mph - N/A   Overcast
2:15 AM 57.2 °F - 57.2 °F 100% 29.65 in 8.0 mi SW 6.9 mph - N/A   Overcast
2:35 AM 57.2 °F - 57.2 °F 100% 29.63 in 7.0 mi SSW 11.5 mph - N/A   Overcast
2:55 AM 57.2 °F - 57.2 °F 100% 29.67 in 4.0 mi WNW 15.0 mph - N/A   Overcast
3:15 AM 55.4 °F - 55.4 °F 100% 29.68 in 4.0 mi WSW 4.6 mph - N/A   Mostly Cloudy
3:35 AM 55.4 °F - 55.4 °F 100% 29.69 in 5.0 mi WSW 8.1 mph - N/A   Overcast
3:55 AM 55.4 °F - 55.4 °F 100% 29.68 in 5.0 mi WSW 4.6 mph - N/A   Overcast
4:15 AM 55.4 °F - 55.4 °F 100% 29.66 in 10.0 mi WSW 4.6 mph - N/A   Overcast
4:35 AM 55.4 °F - 55.4 °F 100% 29.67 in 10.0 mi SW 4.6 mph - N/A   Overcast
4:55 AM 53.6 °F - 53.6 °F 100% 29.66 in 10.0 mi SW 5.8 mph - N/A   Overcast
5:15 AM 53.6 °F - 53.6 °F 100% 29.65 in 10.0 mi SSW 6.9 mph - N/A   Overcast
5:35 AM 53.6 °F - 53.6 °F 100% 29.67 in 10.0 mi SSW 6.9 mph - N/A   Mostly Cloudy
5:55 AM 53.6 °F - 53.6 °F 100% 29.67 in 10.0 mi WSW 8.1 mph - N/A   Partly Cloudy
6:15 AM 53.6 °F - 53.6 °F 100% 29.70 in 10.0 mi WSW 6.9 mph - N/A   Mostly Cloudy
6:35 AM 53.6 °F - 53.6 °F 100% 29.70 in 10.0 mi West 5.8 mph - N/A   Mostly Cloudy
6:55 AM 53.6 °F - 53.6 °F 100% 29.71 in 10.0 mi Variable 5.8 mph - N/A   Scattered Clouds
7:15 AM 53.6 °F - 53.6 °F 100% 29.72 in 10.0 mi West 6.9 mph - N/A   Partly Cloudy
7:35 AM 51.8 °F - 51.8 °F 100% 29.74 in 10.0 mi WSW 5.8 mph - N/A   Clear
7:55 AM 51.8 °F - 48.2 °F 88% 29.74 in 10.0 mi WSW 4.6 mph - N/A   Clear
8:15 AM 51.8 °F - 50.0 °F 94% 29.75 in 10.0 mi WSW 8.1 mph - N/A   Clear
8:35 AM 51.8 °F - 48.2 °F 88% 29.76 in 10.0 mi West 6.9 mph - N/A   Clear
8:55 AM 53.6 °F - 48.2 °F 82% 29.77 in 10.0 mi WSW 6.9 mph - N/A   Clear
9:15 AM 53.6 °F - 50.0 °F 88% 29.78 in 10.0 mi WSW 9.2 mph - N/A   Clear
9:35 AM 53.6 °F - 48.2 °F 82% 29.78 in 10.0 mi West 8.1 mph - N/A   Clear
9:55 AM 53.6 °F - 46.4 °F 77% 29.78 in 10.0 mi WSW 12.7 mph - N/A   Clear
10:15 AM 55.4 °F - 46.4 °F 72% 29.78 in 10.0 mi West 10.4 mph - N/A   Clear
10:35 AM 55.4 °F - 44.6 °F 67% 29.77 in 10.0 mi West 11.5 mph - N/A   Clear
10:55 AM 55.4 °F - 46.4 °F 72% 29.76 in 10.0 mi West 6.9 mph - N/A   Clear
11:15 AM 55.4 °F - 46.4 °F 72% 29.75 in 10.0 mi WSW 11.5 mph - N/A   Clear
11:35 AM 57.2 °F - 46.4 °F 67% 29.74 in 10.0 mi West 10.4 mph - N/A   Clear
11:55 AM 57.2 °F - 46.4 °F 67% 29.73 in 10.0 mi West 10.4 mph - N/A   Partly Cloudy
12:15 PM 57.2 °F - 46.4 °F 67% 29.72 in 10.0 mi WSW 15.0 mph - N/A   Clear
12:35 PM 57.2 °F - 46.4 °F 67% 29.72 in 10.0 mi West 10.4 mph - N/A   Partly Cloudy
12:55 PM 57.2 °F - 46.4 °F 67% 29.72 in 10.0 mi WNW 9.2 mph - N/A   Partly Cloudy
1:15 PM 55.4 °F - 46.4 °F 72% 29.72 in 10.0 mi WNW 9.2 mph - N/A   Scattered Clouds
1:35 PM 57.2 °F - 46.4 °F 67% 29.73 in 10.0 mi West 9.2 mph - N/A   Mostly Cloudy
1:55 PM 55.4 °F - 46.4 °F 72% 29.74 in 10.0 mi West 11.5 mph - N/A   Overcast
2:15 PM 53.6 °F - 46.4 °F 77% 29.75 in 10.0 mi West 8.1 mph - N/A   Overcast
2:35 PM 53.6 °F - 44.6 °F 72% 29.76 in 10.0 mi West 9.2 mph - N/A   Overcast
2:55 PM 53.6 °F - 44.6 °F 72% 29.76 in 10.0 mi West 10.4 mph - N/A   Mostly Cloudy
3:15 PM 53.6 °F - 44.6 °F 72% 29.77 in 10.0 mi West 10.4 mph - N/A   Scattered Clouds
3:35 PM 53.6 °F - 44.6 °F 72% 29.78 in 10.0 mi West 10.4 mph - N/A   Scattered Clouds
3:55 PM 53.6 °F - 42.8 °F 67% 29.80 in 10.0 mi West 10.4 mph - N/A   Partly Cloudy
4:15 PM 51.8 °F - 42.8 °F 71% 29.81 in 10.0 mi West 9.2 mph - N/A   Partly Cloudy
4:35 PM 51.8 °F - 42.8 °F 71% 29.81 in 10.0 mi West 9.2 mph - N/A   Clear
4:55 PM 50.0 °F - 42.8 °F 76% 29.82 in 10.0 mi West 9.2 mph - N/A   Clear
5:15 PM 48.2 °F - 42.8 °F 82% 29.83 in 10.0 mi West 8.1 mph - N/A   Clear
5:35 PM 48.2 °F - 42.8 °F 82% 29.84 in 10.0 mi West 6.9 mph - N/A   Clear
5:55 PM 46.4 °F 43.5 °F 41.0 °F 81% 29.85 in 10.0 mi West 5.8 mph - N/A   Partly Cloudy
6:15 PM 46.4 °F 45.2 °F 41.0 °F 81% 29.86 in 10.0 mi West 3.5 mph - N/A   Clear
6:35 PM 44.6 °F - 39.2 °F 81% 29.88 in 10.0 mi Calm Calm - N/A   Clear
6:55 PM 42.8 °F - 39.2 °F 87% 29.89 in 10.0 mi Calm Calm - N/A   Clear
7:15 PM 42.8 °F - 39.2 °F 87% 29.90 in 10.0 mi Calm Calm - N/A   Clear
7:35 PM 42.8 °F 41.1 °F 39.2 °F 87% 29.91 in 10.0 mi WSW 3.5 mph - N/A   Clear
7:55 PM 42.8 °F - 39.2 °F 87% 29.92 in 10.0 mi Calm Calm - N/A   Clear
8:15 PM 39.2 °F 37.0 °F 37.4 °F 93% 29.92 in 10.0 mi SSW 3.5 mph - N/A   Clear
8:35 PM 41.0 °F 38.0 °F 39.2 °F 93% 29.94 in 10.0 mi WSW 4.6 mph - N/A   Clear
8:55 PM 41.0 °F 38.0 °F 39.2 °F 93% 29.95 in 10.0 mi WSW 4.6 mph - N/A   Clear
9:15 PM 39.2 °F 35.9 °F 37.4 °F 93% 29.95 in 10.0 mi WSW 4.6 mph - N/A   Clear
9:35 PM 37.4 °F 33.8 °F 37.4 °F 100% 29.96 in 10.0 mi SW 4.6 mph - N/A   Clear
9:55 PM 37.4 °F 34.9 °F 37.4 °F 100% 29.97 in 10.0 mi SSW 3.5 mph - N/A   Clear
10:15 PM 39.2 °F 35.9 °F 37.4 °F 93% 29.96 in 10.0 mi South 4.6 mph - N/A   Clear
10:35 PM 39.2 °F 35.9 °F 37.4 °F 93% 29.97 in 9.0 mi South 4.6 mph - N/A   Clear
10:55 PM 35.6 °F 30.7 °F 35.6 °F 100% 29.97 in 10.0 mi SSW 5.8 mph - N/A   Clear
11:15 PM 35.6 °F 32.8 °F 35.6 °F 100% 29.98 in 10.0 mi SSW 3.5 mph - N/A   Clear
11:35 PM 35.6 °F 31.7 °F 35.6 °F 100% 29.97 in 10.0 mi SSW 4.6 mph - N/A   Clear
11:55 PM 37.4 °F 34.9 °F 37.4 °F 100% 29.96 in 10.0 mi SSW 3.5 mph - N/A   Clear